YAOGAN 21

导读 | 星芒AI

遥感21号卫星是中国研制的一颗遥感卫星,主要用于科学实验和国土资源普查等领域。该卫星具备高分辨率对地观测能力,能够获取高质量的遥感数据,为环境监测、灾害预警、农业评估等提供重要支持。作为中国遥感卫星系列的一部分,遥感21号在提升国家空间信息获取能力和推动相关科学研究方面发挥了积极作用。

基本信息
目录编号:
40143
目录名称:
YAOGAN 21
国际标识:
2014-053A
轨道中心:
EARTH
卫星名称:
YAOGAN 21
卫星全名:
--
卫星状态:
在轨 (已飞行4116 天)
发射日期:
2014-09-08 UTC
国别 :
中国 (CN)
星等 :
--
轨道信息
数据来源 国际轨道数据
星历时间: 2025-12-15T07:32:21+0800
19小时前
查看轨道信息
半长轴: 6872.81km
偏心率: 0.0009606
轨道倾角: 97.177°
近地点辐角 34.416°
升交点赤经 32.196°
平近点角 325.770°
近地点: 488.072km
远地点: 501.278km
周期: 94.506分钟
每日圈数: 15.237063
详细信息
使用方式:
暂无
2D轨道图
3D轨道图
轨道高度分析图
轨道倾角分析图
轨道综合分析图
查看轨道综合分析图